Location: Fontevrault
(47.1823°N, 0.0493°E)
Time: 04:26:26
(UTC+00:00)

Cosmos 1459 Rocket - Pass Details

Date: 17 October 2021
Orbit: 936 x 1000 km, 83.0° (Epoch: 01 December)

Event Time Altitude Azimuth Distance (km) Brightness Sun altitude
Exits shadow 21:00:39 24° 354° (N) 1,893 5.7 -38.8°
Drops below altitude 10° 21:02:58 10° 2° (N) 2,701 6.6 -39.2°
Sets 21:05:31 0° 6° (N) 3,642 7.3 -39.5°
